Showing default

IRIDIUM 134, 43075

Orbit data source: Space-Track

IRIDIUM 134, 43075 is a payload satellite owned by Iridium (US) in LEO that was launched on Sat, 23 Dec 2017 UTC via an FALCON 9 launch vehicle from the Air Force Western Test Range (AFWTR). Payload-class satellites include a variety of spacecraft equipped with specific instruments for various scientific and technological missions. These include communications satellites like Starlink; space stations such as the ISS; scientific satellites like the Hubble; Earth observation satellites from companies like Planet Labs, Umbra, and HawkEye 360; GPS; miniature CubeSats for education and research; and military/defense satellites.

Loading next visibility...
Identifier
43075, 2017-083F
Orbit
LEO
Last TLE update
22 hours ago
Origin
Manufacturer
OATK SSG Gilbert
Mission
Operational Commercial Communications
Bus & Motor
ELITEBUS, Unknown motor
Mass
860 kg wet, 700 kg dry
Launch date (UTC)
2017-12-23 (8 years ago)
Launch vehicle
FALCON 9
Launch site
Air Force Western Test Range (AFWTR)
Object type
Payload
Rocket body
Debris
Shape & HBR
Trap Box + 2 Pan, 9.4 m
Radar Cross Section
14.423 m², Large (>1 m²)

Expand to show TLE details & history

TLE from 22 hours ago
0 IRIDIUM 134
1 43075U 17083F   25181.84170355  .00000099  00000-0  28217-4 0  9990
2 43075  86.3970 108.9570 0002238  76.9584 283.1861 14.34218198393744
Epoch: 2025-06-30T20:12Z
TLE epoch observation values (Epoch: 2025-06-30T20:12:03.186Z)
Latitude
-0.00009°
Longitude
-113.202°
Altitude
780.352 km
Speed
7.464 km/s
True Right ascension
07h 15m 49s
True Declination
0° 00' 00"
Sunlit
Object was in daylight at epoch
Visualization orbit readout
Latitude
11.53744°
Longitude
-112.84942°
Altitude
779.213 km
Speed
7.466 km/s
Apparent Right ascension
09h 49m 54s
Apparent Declination
-39° 19' 57"
Sunlit
Object is in daylight
Visualization observer readout
Local Sidereal Time
05:41:01
Azimuth
136.352° SSE
Elevation
-7.483°
Doppler factor
1
Orbital elements
Apogee altitude
776.231 km
Perigee altitude
773.029 km
Semi-major axis
7,152.767 km
Eccentricity
0.00022
Inclination
86.397°
RAAN
108.957°
Arg. of periapsis
76.9584°
True anomaly
Unknown
Mean anomaly
283.1861°
Eccentric anomaly
Unknown
Mean motion
3.58783 °/min
Orbital period
100.34 mins
BSTAR
0.000028217
Loading maneuver chart data...
Loading SW <> Apogee altitude chart data...
Loading historical data...
Loading historical data...
Loading historical data...
Loading historical data...
Loading historical data...
Loading historical data...
Loading historical data...

IRIDIUM 134 Visibility forecast

Observer location: undefined°, undefined°

Span
Click to sort rows by Start time (UTC) header in descending order
Start Az.
Max El. time (UTC)
Max El. Az.
Max El.
End time (UTC)
End Az.
9 mins2025-07-01 19:45:19.488Z183.915° SSW2025-07-01 19:49:19.488Z207.25° SW44.113°2025-07-01 19:54:19.488Z0.751° NNE
6 mins2025-07-02 06:17:19.488Z37.229° NE2025-07-02 06:20:19.488Z83.77° E22.477°2025-07-02 06:23:19.488Z125.583° SE
8 mins2025-07-02 07:57:19.488Z332.479° NNW2025-07-02 08:00:19.488Z287.267° WNW29.728°2025-07-02 08:05:19.488Z211.144° SW
|